• In Belarus
  • List of Countries
  • For 7 days
  • Water Temperature
  • Satellite Maps
  • Weather Map
  • Weather Widgets
  • user-avatar
    Login

    Hourly Weather Kussnacht

    Today, 26 September, Wednesday

    Time Temperature Precipitation Wind Pressure Humidity
    00:00 +8°C° 0 mm 1 mps 734 mmHg 81%
    01:00 +8°C° 0 mm 1 mps 734 mmHg 82%
    02:00 +8°C° 0 mm 1 mps 734 mmHg 82%
    03:00 +8°C° 0 mm 1 mps 734 mmHg 83%
    04:00 +8°C° 0 mm 1 mps 734 mmHg 83%
    05:00 +8°C° 0 mm 1 mps 734 mmHg 81%
    06:00 +8°C° 0 mm 1 mps 734 mmHg 79%
    07:00 +8°C° 0 mm 1 mps 734 mmHg 76%
    08:00 +12°C° 0 mm 1 mps 734 mmHg 67%
    09:00 +15°C° 0 mm 1 mps 734 mmHg 57%
    10:00 +17°C° 0 mm 0 mps 734 mmHg 48%
    11:00 +20°C° 0 mm 1 mps 734 mmHg 45%
    12:00 +22°C° 0 mm 1 mps 734 mmHg 42%
    13:00 +23°C° 0 mm 1 mps 734 mmHg 40%
    14:00 +23°C° 0 mm 1 mps 734 mmHg 42%
    15:00 +23°C° 0 mm 1 mps 734 mmHg 45%
    16:00 +23°C° 0 mm 1 mps 733 mmHg 48%
    17:00 +20°C° 0 mm 1 mps 733 mmHg 57%
    18:00 +16°C° 0 mm 1 mps 733 mmHg 66%
    19:00 +14°C° 0 mm 1 mps 733 mmHg 75%
    20:00 +13°C° 0 mm 1 mps 733 mmHg 75%
    21:00 +13°C° 0 mm 1 mps 733 mmHg 74%
    22:00 +13°C° 0 mm 1 mps 734 mmHg 74%
    23:00 +13°C° 0 mm 1 mps 734 mmHg 71%

    Tomorrow, 27 September, Thursday

    Time Temperature Precipitation Wind Pressure Humidity
    00:00 +12°C° 0 mm 1 mps 733 mmHg 69%
    01:00 +12°C° 0 mm 1 mps 733 mmHg 67%
    02:00 +12°C° 0 mm 1 mps 733 mmHg 64%
    03:00 +12°C° 0 mm 1 mps 733 mmHg 62%
    04:00 +12°C° 0 mm 1 mps 733 mmHg 60%
    05:00 +12°C° 0 mm 1 mps 732 mmHg 58%
    06:00 +12°C° 0 mm 1 mps 732 mmHg 57%
    07:00 +12°C° 0 mm 1 mps 732 mmHg 56%
    08:00 +15°C° 0 mm 1 mps 732 mmHg 52%
    09:00 +19°C° 0 mm 1 mps 732 mmHg 47%
    10:00 +20°C° 0 mm 0 mps 732 mmHg 42%
    11:00 +24°C° 0 mm 1 mps 732 mmHg 42%
    12:00 +25°C° 0 mm 1 mps 732 mmHg 41%
    13:00 +26°C° 0 mm 1 mps 731 mmHg 41%
    14:00 +25°C° 0 mm 1 mps 731 mmHg 44%
    15:00 +25°C° 0 mm 1 mps 730 mmHg 47%
    16:00 +25°C° 0 mm 1 mps 730 mmHg 50%
    17:00 +22°C° 0 mm 1 mps 730 mmHg 60%
    18:00 +19°C° 0 mm 1 mps 729 mmHg 69%
    19:00 +16°C° 0 mm 1 mps 729 mmHg 79%
    20:00 +15°C° 0 mm 1 mps 729 mmHg 79%
    21:00 +15°C° 0 mm 1 mps 729 mmHg 80%
    22:00 +15°C° 0 mm 1 mps 729 mmHg 80%
    23:00 +14°C° 0 mm 1 mps 728 mmHg 79%

    Day after tomorrow, 28 September, Friday

    Time Temperature Precipitation Wind Pressure Humidity
    00:00 +14°C° 0 mm 1 mps 728 mmHg 78%
    01:00 +14°C° 0 mm 1 mps 727 mmHg 77%
    02:00 +14°C° 0 mm 1 mps 727 mmHg 76%
    03:00 +13°C° 0 mm 1 mps 727 mmHg 74%
    04:00 +13°C° 0 mm 1 mps 726 mmHg 73%
    05:00 +13°C° 0 mm 1 mps 726 mmHg 72%
    06:00 +13°C° 0 mm 1 mps 726 mmHg 72%
    07:00 +13°C° 0 mm 1 mps 725 mmHg 71%
    08:00 +16°C° 0 mm 1 mps 725 mmHg 65%
    09:00 +20°C° 0 mm 1 mps 725 mmHg 58%
    10:00 +22°C° 0 mm 1 mps 725 mmHg 52%
    11:00 +23°C° 0 mm 1 mps 725 mmHg 51%
    12:00 +24°C° 0 mm 1 mps 725 mmHg 49%
    13:00 +25°C° 0 mm 1 mps 724 mmHg 48%
    14:00 +24°C° 0 mm 1 mps 724 mmHg 51%
    15:00 +24°C° 0 mm 1 mps 723 mmHg 54%
    16:00 +23°C° 0 mm 1 mps 723 mmHg 57%
    17:00 +21°C° 0 mm 1 mps 723 mmHg 67%
    18:00 +19°C° 0 mm 1 mps 723 mmHg 76%
    19:00 +16°C° 0 mm 1 mps 723 mmHg 86%
    20:00 +15°C° 0 mm 1 mps 723 mmHg 87%
    21:00 +15°C° 0 mm 1 mps 723 mmHg 88%
    22:00 +14°C° 0 mm 1 mps 723 mmHg 89%
    23:00 +14°C° 0 mm 1 mps 723 mmHg 90%

    29 September, Saturday

    Time Temperature Precipitation Wind Pressure Humidity
    00:00 +14°C° 0 mm 1 mps 723 mmHg 90%
    01:00 +13°C° 0 mm 1 mps 723 mmHg 90%
    02:00 +13°C° 0 mm 1 mps 723 mmHg 91%
    03:00 +13°C° 0 mm 1 mps 723 mmHg 92%
    04:00 +13°C° 0 mm 1 mps 723 mmHg 93%
    05:00 +12°C° 0 mm 2 mps 723 mmHg 94%
    06:00 +12°C° 0 mm 2 mps 724 mmHg 94%
    07:00 +12°C° 0 mm 2 mps 724 mmHg 94%
    08:00 +13°C° 0 mm 2 mps 724 mmHg 90%
    09:00 +12°C° 0 mm 3 mps 724 mmHg 87%
    10:00 +13°C° 0 mm 3 mps 724 mmHg 83%
    11:00 +13°C° 0 mm 3 mps 724 mmHg 80%
    12:00 +14°C° 0 mm 3 mps 724 mmHg 77%
    13:00 +14°C° 0 mm 3 mps 723 mmHg 74%
    14:00 +14°C° 0 mm 3 mps 723 mmHg 73%
    15:00 +14°C° 0 mm 3 mps 723 mmHg 72%
    16:00 +14°C° 0 mm 3 mps 723 mmHg 72%
    17:00 +13°C° 0 mm 3 mps 723 mmHg 76%
    18:00 +11°C° 0 mm 3 mps 723 mmHg 80%
    19:00 +10°C° 0 mm 2 mps 724 mmHg 84%
    20:00 +10°C° 0 mm 2 mps 724 mmHg 85%
    21:00 +9°C° 0 mm 2 mps 724 mmHg 86%
    22:00 +9°C° 0 mm 2 mps 724 mmHg 87%
    23:00 +8°C° 0 mm 2 mps 724 mmHg 87%

    30 September, Sunday

    Time Temperature Precipitation Wind Pressure Humidity
    00:00 +8°C° 0 mm 2 mps 723 mmHg 88%
    01:00 +8°C° 0 mm 2 mps 723 mmHg 88%
    02:00 +8°C° 0 mm 1 mps 723 mmHg 89%
    03:00 +8°C° 0 mm 1 mps 722 mmHg 91%
    04:00 +8°C° 0 mm 1 mps 722 mmHg 92%
    05:00 +8°C° 0 mm 1 mps 722 mmHg 92%
    06:00 +8°C° 0 mm 1 mps 722 mmHg 92%
    07:00 +8°C° 0 mm 1 mps 722 mmHg 92%
    08:00 +10°C° 0 mm 1 mps 722 mmHg 84%
    09:00 +12°C° 0 mm 1 mps 722 mmHg 76%
    10:00 +14°C° 0 mm 1 mps 722 mmHg 68%
    11:00 +16°C° 0 mm 2 mps 722 mmHg 65%
    12:00 +17°C° 0 mm 2 mps 722 mmHg 61%
    13:00 +18°C° 0 mm 2 mps 721 mmHg 57%
    14:00 +18°C° 0 mm 2 mps 721 mmHg 58%
    15:00 +18°C° 0 mm 2 mps 721 mmHg 60%
    16:00 +17°C° 0 mm 2 mps 721 mmHg 61%
    17:00 +15°C° 0 mm 1 mps 721 mmHg 70%
    18:00 +13°C° 0 mm 1 mps 721 mmHg 79%
    19:00 +11°C° 0 mm 1 mps 721 mmHg 88%
    20:00 +11°C° 0 mm 1 mps 721 mmHg 90%
    21:00 +10°C° 0 mm 1 mps 722 mmHg 91%
    22:00 +10°C° 0 mm 1 mps 722 mmHg 92%
    23:00 +10°C° 0 mm 1 mps 722 mmHg 92%

    1 October, Monday

    Time Temperature Precipitation Wind Pressure Humidity
    00:00 +9°C° 0 mm 1 mps 722 mmHg 93%
    01:00 +8°C° 0 mm 0 mps 721 mmHg 93%
    02:00 +8°C° 0 mm 0 mps 721 mmHg 93%
    03:00 +9°C° 0 mm 1 mps 721 mmHg 93%
    04:00 +8°C° 0 mm 1 mps 721 mmHg 94%
    05:00 +9°C° 0 mm 1 mps 721 mmHg 93%
    06:00 +9°C° 0 mm 1 mps 722 mmHg 92%
    07:00 +9°C° 0 mm 1 mps 722 mmHg 92%
    08:00 +11°C° 0 mm 1 mps 722 mmHg 82%
    09:00 +13°C° 0 mm 1 mps 722 mmHg 72%
    10:00 +16°C° 0 mm 1 mps 722 mmHg 62%
    11:00 +18°C° 0 mm 1 mps 722 mmHg 59%
    12:00 +18°C° 0 mm 2 mps 722 mmHg 57%
    13:00 +19°C° 0 mm 2 mps 722 mmHg 54%
    14:00 +18°C° 0 mm 2 mps 722 mmHg 57%
    15:00 +18°C° 0 mm 2 mps 722 mmHg 60%
    16:00 +17°C° 0 mm 2 mps 723 mmHg 62%
    17:00 +16°C° 0 mm 2 mps 723 mmHg 70%
    18:00 +14°C° 0 mm 2 mps 724 mmHg 77%
    19:00 +12°C° 0 mm 1 mps 724 mmHg 85%
    20:00 +11°C° 0 mm 1 mps 725 mmHg 86%
    21:00 +11°C° 0 mm 1 mps 725 mmHg 87%
    22:00 +10°C° 0 mm 1 mps 725 mmHg 88%
    23:00 +9°C° 0 mm 1 mps 725 mmHg 89%
    Show more